This is the latest recevied weather packets stored in our database for station/object K6CEG. If no packets are shown the sender has not sent any weather packets the latest 10 day(s).
| Time | Temp. | Humidity | Pressure | Rain* | Wind** | Luminosity | Snow |
|---|---|---|---|---|---|---|---|
| 1788462759 | 27.78° C | 41% | 1015.5 hPa | 0 mm | - | 698 W/m² | - |
| 1788462475 | 26.67° C | 43% | 1015.8 hPa | 0 mm | - | 723 W/m² | - |
| 1788462147 | 27.78° C | 42% | 1015.9 hPa | 0 mm | - | 758 W/m² | - |
| 1788461842 | 27.22° C | 42% | 1016 hPa | 0 mm | - | 766 W/m² | - |
| 1788461542 | 27.22° C | 42% | 1016.2 hPa | 0 mm | - | 774 W/m² | - |
| 1788461239 | 27.22° C | 44% | 1016.1 hPa | 0 mm | - | 789 W/m² | - |
| 1788460935 | 26.67° C | 45% | 1016.3 hPa | 0 mm | - | 747 W/m² | - |
| 1788460634 | 27.22° C | 43% | 1016.1 hPa | 0 mm | - | 751 W/m² | - |
| 1788460329 | 26.67° C | 46% | 1016.3 hPa | 0 mm | - | 766 W/m² | - |
| 1788460028 | 26.67° C | 46% | 1016.3 hPa | 0 mm | - | 789 W/m² | - |
| 1788459723 | 26.11° C | 46% | 1016.4 hPa | 0 mm | - | 823 W/m² | - |
| 1788459421 | 25.56° C | 48% | 1016.4 hPa | 0 mm | - | 769 W/m² | - |
| 1788459116 | 26.67° C | 48% | 1016.5 hPa | 0 mm | - | 778 W/m² | - |
| 1788458812 | 26.11° C | 48% | 1016.6 hPa | 0 mm | - | 768 W/m² | - |
| 1788458506 | 25.56° C | 50% | 1016.5 hPa | 0 mm | - | 768 W/m² | - |
| 1788458205 | 26.11° C | 50% | 1016.4 hPa | 0 mm | - | 695 W/m² | - |
| 1788457904 | 25.56° C | 51% | 1016.4 hPa | 0 mm | - | 706 W/m² | - |
| 1788457599 | 25° C | 51% | 1016.6 hPa | 0 mm | - | 734 W/m² | - |
| 1788457294 | 25° C | 52% | 1016.6 hPa | 0 mm | - | 750 W/m² | - |
| 1788456989 | 25° C | 53% | 1016.6 hPa | 0 mm | - | 746 W/m² | - |
| 1788456686 | 25° C | 52% | 1016.8 hPa | 0 mm | - | 691 W/m² | - |
| 1788456406 | 24.44° C | 55% | 1016.5 hPa | 0 mm | - | 662 W/m² | - |
| 1788456081 | 24.44° C | 56% | 1016.7 hPa | 0 mm | - | 619 W/m² | - |
| 1788455780 | 24.44° C | 54% | 1016.8 hPa | 0 mm | - | 636 W/m² | - |
| 1788455477 | 24.44° C | 55% | 1016.7 hPa | 0 mm | - | 559 W/m² | - |
* Rain latest hour (hover to see other rain measurements)
** Current wind speed in m/s (hover to see current wind gust speed)